Theta_e
308 308 310 310 310 309 307 307 307 306 306 305 304 302 299 297 296 294 293 291 290 289 289 291 291 291 292 292 291 291 291 290 289 289 289 289 290 292 293 294 295 296 297 299
304 305 305 307 306 304 303 304 305 304 304 301 299 297 296 295 294 293 291 290 288 287 290 290 291 292 292 293 293 292 291 290 290 290 289 289 290 290 291 292 294 293 294 295
304 303 301 302 302 302 303 305 305 302 304 299 297 297 295 292 292 291 289 287 287 290 290 291 291 292 292 292 292 292 293 292 292 292 290 289 289 289 290 290 291 290 291 294
305 302 304 303 303 303 303 301 302 302 300 297 296 293 292 291 290 288 287 286 288 289 290 290 291 292 290 288 288 290 292 293 293 292 291 290 290 289 289 289 290 290 291 291
301 302 302 303 300 298 298 300 297 301 296 294 292 291 290 289 288 287 287 287 288 288 289 288 286 284 284 284 284 284 284 285 286 290 291 291 291 290 290 290 291 290 290 292
299 301 295 294 300 300 297 297 296 296 298 294 291 292 290 289 287 287 287 287 287 287 286 285 285 285 285 285 284 283 282 282 284 284 283 284 286 288 289 289 289 290 291 291
299 298 300 299 298 299 299 296 295 295 295 297 295 292 290 288 287 287 287 286 286 285 286 285 285 285 285 285 285 284 283 283 283 283 283 283 283 283 283 283 283 284 286 289
296 295 298 296 298 300 295 294 294 294 294 293 292 289 288 288 288 287 287 286 285 285 285 286 286 285 285 285 284 284 284 284 283 283 282 283 283 283 283 284 284 283 283 283
299 295 294 295 295 295 295 294 293 292 290 290 289 288 288 288 288 287 286 286 285 285 285 285 285 285 284 284 283 283 283 283 283 283 283 283 283 283 283 282 282 282 282 282
298 295 295 294 293 293 293 293 292 291 290 289 288 288 288 287 286 286 285 285 285 284 283 283 284 284 283 283 283 283 283 283 282 283 283 283 281 280 281 281 281 280 281 281
297 296 295 294 293 291 291 291 291 290 289 289 288 287 287 286 286 285 285 285 283 282 282 282 283 283 283 282 282 283 283 282 282 282 282 281 281 280 279 278 279 279 279 279
294 295 295 294 292 291 290 290 290 289 288 288 287 287 286 286 285 285 284 283 282 282 281 281 282 282 282 282 282 282 282 282 281 281 280 280 280 279 279 278 278 278 278 278
296 296 296 293 291 290 289 289 289 288 288 287 287 287 286 285 284 284 283 282 281 281 282 282 282 281 281 281 282 281 281 281 281 280 280 280 280 279 279 278 278 277 277 277
296 295 292 291 290 290 289 289 288 288 288 287 287 286 285 284 283 283 283 282 281 280 281 282 282 282 281 280 280 281 281 280 280 280 280 279 279 278 278 277 277 277 276 276
294 294 292 292 290 289 289 288 288 287 287 286 286 285 284 283 283 283 282 281 280 280 281 281 281 281 281 281 280 280 280 279 279 279 278 278 277 277 277 276 276 276 275 275
293 293 292 290 289 289 288 288 288 287 286 286 285 285 284 284 283 282 281 279 279 279 279 280 280 280 280 279 279 279 278 278 278 277 277 277 277 276 276 275 275 274 274 274
291 290 290 289 289 288 288 288 288 287 287 286 284 284 284 283 282 282 279 278 278 278 277 278 278 279 279 278 278 278 278 278 277 277 276 276 276 275 275 275 274 274 274 274
292 291 290 290 289 289 289 288 288 287 287 285 285 285 283 282 281 279 278 277 277 277 277 277 277 277 278 278 278 277 277 277 276 276 275 275 275 275 275 274 274 274 273 273
291 291 290 290 290 290 289 288 288 287 286 285 285 284 282 280 279 279 279 277 277 278 278 277 276 276 277 277 277 276 276 275 275 275 275 275 274 274 274 273 273 273 273 273
292 292 291 290 290 290 289 288 287 287 286 284 283 283 282 279 279 280 279 277 277 277 277 276 276 276 276 275 275 275 275 275 274 274 274 273 273 273 272 272 272 272 271 271
293 292 291 291 290 290 289 288 287 286 285 284 284 283 281 279 279 278 277 277 277 277 277 277 277 275 275 275 275 275 274 274 273 273 272 272 271 271 270 270 270 270 269 269
292 292 291 291 290 289 288 287 286 286 285 283 280 279 279 279 280 280 279 277 277 277 277 277 276 275 275 274 274 274 273 272 272 271 271 270 270 269 269 268 268 268 267 267
291 291 290 289 289 288 286 286 285 285 283 281 280 279 279 280 280 280 279 278 277 277 276 276 275 275 274 273 273 272 272 271 271 270 269 269 268 268 267 267 266 266 266 266
289 289 289 288 287 286 286 284 284 282 280 279 278 279 280 280 279 279 279 278 277 276 276 275 275 274 273 272 272 271 271 270 269 269 268 268 267 267 266 266 266 265 265 265
287 287 287 286 286 285 284 283 282 279 278 279 280 280 280 280 280 279 278 277 276 276 275 274 274 273 272 272 271 270 270 269 269 268 268 267 267 266 266 265 265 265 264 264
286 286 286 285 285 285 284 283 281 278 280 280 280 280 280 280 279 278 278 277 276 275 274 273 273 272 271 271 270 269 269 269 268 267 267 267 266 266 266 265 265 264 264 264
284 284 284 284 284 283 283 281 279 278 279 279 280 279 279 278 278 277 276 275 275 274 273 272 271 271 270 270 269 269 268 268 267 267 267 266 266 266 265 265 265 264 264 264
Wind_Speed
4 2 3 3 9 14 8 9 10 11 4 7 7 10 13 15 13 11 10 10 11 12 15 19 21 23 26 27 27 26 23 21 20 20 22 23 22 19 18 17 16 14 18 14
2 3 4 7 11 9 8 6 5 5 4 6 14 19 15 10 9 9 9 9 8 9 15 19 21 23 26 28 28 26 25 24 22 22 23 25 26 25 25 25 25 26 25 25
3 1 1 4 6 11 7 4 1 3 4 5 5 8 7 7 8 7 6 5 8 13 16 17 19 21 24 23 22 25 28 28 27 27 28 28 28 30 31 33 34 37 37 34
2 1 4 1 5 6 11 6 6 8 8 7 10 9 6 4 5 5 5 7 10 11 13 15 16 18 21 23 24 25 24 25 26 27 29 31 33 36 38 41 43 45 44 43
3 3 1 1 4 2 3 2 3 6 7 12 17 16 9 4 5 8 9 12 13 14 16 17 18 17 18 21 24 26 27 26 24 23 24 27 31 34 38 42 46 48 49 48
2 3 5 5 1 6 3 4 4 4 9 13 16 2 3 9 10 12 12 12 14 15 17 16 15 14 17 19 22 27 29 28 24 24 27 29 29 31 34 38 41 44 46 49
2 2 4 3 1 1 3 5 2 3 6 9 6 5 18 15 14 11 11 11 12 13 14 13 13 13 15 16 19 18 21 24 25 25 27 29 30 32 34 38 40 43 44 45
3 2 7 2 2 5 2 3 2 2 4 8 15 21 21 18 17 14 12 10 10 9 10 10 9 10 15 17 15 13 15 20 23 25 27 28 30 33 35 36 39 42 43 45
4 4 5 5 6 3 3 6 3 4 9 20 25 24 21 19 16 14 13 11 7 6 7 7 8 10 14 16 12 13 17 20 22 25 27 29 32 34 36 38 40 40 41 42
3 3 7 8 5 3 3 5 8 10 15 19 23 22 21 19 17 15 12 10 6 8 11 13 11 11 13 12 12 14 18 21 24 26 28 30 34 35 35 37 38 39 38 38
3 6 10 7 6 6 8 9 11 13 16 18 21 21 20 19 16 14 11 9 8 11 13 14 14 14 13 12 13 15 17 19 21 23 25 27 29 32 33 31 31 33 33 32
4 14 7 11 10 9 12 13 13 16 18 18 20 21 20 19 16 14 11 9 10 11 12 14 12 11 12 13 13 14 17 19 20 22 23 24 25 26 27 27 26 26 27 28
5 14 8 18 12 12 14 15 16 17 17 20 18 19 19 18 15 13 10 9 10 10 11 11 11 13 13 12 12 15 17 17 17 18 19 21 22 23 23 23 25 26 25 25
14 17 16 18 11 15 16 16 16 16 16 17 18 20 19 18 14 11 8 7 8 9 10 9 8 8 11 12 11 11 13 13 13 14 15 16 18 19 22 25 26 26 25 26
7 1 13 14 18 18 18 18 19 18 18 19 23 17 19 18 14 10 8 6 9 10 11 11 9 9 9 9 9 10 12 14 13 12 14 15 15 17 19 21 22 23 24 24
7 13 18 20 21 21 20 20 21 20 19 22 17 17 15 12 12 10 9 9 8 11 12 10 8 8 7 7 8 9 11 12 13 12 13 15 15 17 19 19 20 21 23 23
20 17 19 21 22 21 21 19 20 21 21 18 21 18 13 13 11 9 10 10 10 11 11 10 8 6 6 8 8 8 10 11 12 12 13 13 13 14 15 16 18 19 20 20
9 13 17 20 22 21 19 18 18 19 21 21 19 14 12 10 12 13 12 11 11 11 10 8 6 5 5 7 9 8 8 9 9 10 10 12 12 13 14 15 16 16 16 16
12 15 15 18 18 17 17 19 18 17 18 18 15 13 10 11 13 12 11 10 9 8 9 8 6 3 4 6 8 8 7 7 9 11 11 12 13 13 14 14 15 15 15 15
14 14 15 16 15 14 15 14 14 15 15 16 16 14 12 12 11 10 10 9 8 7 8 6 5 3 4 6 7 9 9 11 12 12 13 13 13 14 15 16 15 14 15 15
16 16 17 15 15 13 11 13 15 16 15 14 14 14 13 14 12 11 10 9 8 6 5 2 4 5 5 8 9 10 12 13 13 14 14 14 14 15 15 15 15 16 15 15
17 18 17 15 15 14 13 14 14 14 14 16 15 15 15 15 14 11 9 3 4 3 2 3 6 7 8 9 11 13 14 14 14 14 15 16 17 17 18 18 17 17 17 16
18 17 16 15 14 14 15 14 13 13 15 15 15 15 14 12 11 9 8 7 4 2 3 5 6 8 10 11 13 14 14 14 14 15 16 16 17 17 17 17 18 18 19 19
16 16 15 14 13 13 15 16 16 16 15 17 18 17 17 15 13 9 5 5 4 5 6 6 7 11 12 12 12 12 12 13 14 14 15 16 16 17 17 17 18 19 20 20
15 15 15 15 15 16 17 19 20 20 21 20 17 14 13 9 6 9 7 5 5 5 5 8 10 11 11 10 10 10 11 12 13 14 14 15 16 17 17 17 18 19 20 20
15 15 15 14 14 17 19 21 22 24 23 20 16 12 11 11 10 9 7 6 6 6 8 10 10 10 9 9 9 10 11 12 13 13 13 14 15 16 16 17 18 19 20 22
13 15 16 14 14 17 19 20 23 24 21 18 16 12 10 10 9 7 6 6 6 8 9 10 9 9 9 9 9 9 11 12 12 13 13 14 15 16 17 18 19 20 21 22
Wind_Direction
243 195 175 161 244 261 274 235 224 250 245 44 78 117 117 115 105 86 68 52 42 34 34 38 35 35 35 32 27 22 20 20 24 28 28 27 26 28 29 25 20 12 10 336
284 276 268 244 249 258 258 265 251 208 117 89 82 84 80 79 76 66 53 42 39 41 49 45 40 39 39 37 33 30 31 31 28 36 38 41 42 43 47 50 52 49 44 39
264 226 0 259 223 238 250 63 156 183 153 147 88 85 77 76 78 79 71 54 54 51 50 45 41 41 42 41 38 37 37 36 38 41 47 48 52 53 55 55 57 57 54 52
220 77 238 131 29 32 105 58 34 96 133 138 139 111 85 63 111 124 121 95 81 76 71 61 55 52 50 45 41 39 37 35 38 42 50 56 58 60 60 59 59 58 58 57
157 192 24 253 344 72 119 194 2 143 133 142 141 126 113 127 142 129 111 100 94 90 81 69 61 60 62 57 52 48 44 43 40 38 44 53 56 58 62 62 60 58 59 59
122 178 220 233 101 100 110 285 150 113 177 170 172 208 158 157 140 123 115 108 101 93 88 80 67 58 56 54 53 50 47 47 46 48 50 52 55 57 58 60 61 61 58 58
139 199 273 141 256 24 113 237 96 334 272 209 197 231 154 152 139 118 108 106 102 88 81 76 70 66 62 53 50 51 51 52 51 51 54 55 55 56 59 62 62 61 58 56
94 116 257 151 139 197 145 122 207 278 271 194 161 140 141 143 144 139 125 110 93 97 93 85 74 62 66 57 44 47 51 52 52 51 53 54 54 55 54 53 56 57 57 56
180 207 135 84 105 128 210 179 174 167 141 146 138 141 145 145 145 139 131 119 103 91 98 94 77 62 62 60 53 56 58 55 50 48 47 48 47 47 48 48 48 48 50 50
136 182 148 137 128 168 162 171 166 164 154 151 147 149 145 143 139 133 127 114 105 106 97 90 86 74 68 73 70 63 60 56 49 46 43 42 43 42 42 42 40 41 43 46
91 130 133 149 165 172 143 149 154 159 159 156 152 148 147 143 137 133 126 119 121 108 101 92 87 86 82 72 73 69 63 56 51 48 46 45 45 44 43 45 42 38 39 42
214 175 137 167 168 171 158 158 162 158 154 156 154 150 151 140 136 129 118 118 116 113 101 91 86 89 83 74 64 63 60 53 50 47 44 42 43 44 45 47 45 47 43 43
143 148 143 151 160 167 162 161 160 159 158 155 157 153 147 130 127 128 133 125 115 114 111 105 94 82 81 75 59 54 55 50 45 42 39 36 31 33 36 41 41 42 44 40
139 137 119 150 160 167 160 156 158 157 158 157 154 148 132 139 143 148 135 117 111 114 121 119 106 97 77 71 63 50 48 44 39 36 34 31 30 27 24 25 28 31 32 32
122 224 176 163 154 156 157 155 147 148 151 149 145 142 158 157 162 154 139 128 130 131 130 125 114 95 70 54 46 42 42 44 41 34 33 33 31 31 27 22 23 21 20 22
153 144 148 153 155 158 158 156 154 153 152 149 155 163 167 177 165 148 141 139 142 136 132 134 123 93 68 46 37 36 41 41 34 31 26 24 25 25 25 23 20 18 18 18
143 145 156 155 157 159 162 164 162 159 161 169 168 171 175 172 166 161 147 141 142 135 133 138 118 95 64 50 50 35 19 26 26 24 26 24 23 20 15 13 13 12 13 9
199 174 173 166 164 166 167 168 169 168 170 174 180 177 177 183 173 157 147 137 135 134 128 121 105 80 46 37 29 25 6 3 11 17 9 8 6 0 356 355 355 355 357 358
161 160 165 168 173 172 172 174 180 183 183 185 182 168 167 165 165 156 142 138 138 133 111 98 91 49 9 4 3 5 1 351 357 359 355 349 347 344 340 340 337 336 337 337
168 168 170 175 183 187 180 180 180 176 173 175 178 178 173 169 163 152 141 138 136 126 111 89 56 10 347 339 346 357 352 351 353 346 340 338 335 330 329 328 329 330 331 331
179 184 185 184 181 185 191 188 184 180 178 184 187 185 183 170 160 146 137 145 144 144 134 104 17 358 345 342 344 342 342 342 339 334 330 328 326 326 328 328 329 331 330 328
190 187 188 187 186 183 182 182 184 188 184 171 175 178 171 162 154 156 144 154 152 140 190 320 338 343 339 333 333 334 336 337 331 326 325 328 330 331 330 328 328 328 325 322
188 190 188 185 185 182 178 184 187 184 169 168 168 167 170 167 156 163 158 159 167 209 273 305 319 326 328 323 326 330 332 328 327 329 331 332 333 332 330 328 326 324 322 321
187 186 188 185 185 185 180 170 166 159 163 159 158 165 168 167 166 178 192 187 216 248 271 289 310 330 335 333 332 332 331 331 333 334 335 336 335 332 330 330 329 327 324 321
196 193 191 186 182 178 174 168 163 163 163 164 167 171 170 174 219 193 195 214 244 254 279 300 324 337 338 340 340 339 337 336 339 343 341 339 337 338 337 335 333 331 328 326
189 190 185 187 187 182 178 173 172 168 169 169 169 174 177 187 194 198 218 244 259 278 299 319 331 333 340 347 352 348 345 345 352 350 347 346 346 347 347 346 343 338 333 332
186 182 178 178 181 184 180 177 176 172 181 185 181 185 204 209 207 213 224 245 273 296 306 320 331 337 343 355 354 352 352 357 356 355 356 354 354 354 353 350 349 346 342 338